• In Moldova, Republic
  • List of Countries
  • For 7 days
  • Water Temperature
  • Satellite Maps
  • Weather Map
  • Weather Widgets
  • user-avatar
    Login

    Hourly Weather Yulara

    Today, 13 December, Wednesday

    Time Temperature Precipitation Wind Pressure Humidity
    00:00 +35°C° 0 mm 3 mps 715 mmHg 21%
    01:00 +34°C° 0 mm 3 mps 714 mmHg 23%
    02:00 +32°C° 0 mm 2 mps 714 mmHg 24%
    03:00 +31°C° 0 mm 2 mps 714 mmHg 27%
    04:00 +31°C° 0 mm 2 mps 714 mmHg 28%
    05:00 +31°C° 0 mm 2 mps 714 mmHg 29%
    06:00 +31°C° 0 mm 1 mps 714 mmHg 30%
    07:00 +33°C° 0 mm 1 mps 714 mmHg 27%
    08:00 +36°C° 0 mm 2 mps 715 mmHg 23%
    09:00 +36°C° 0 mm 1 mps 715 mmHg 21%
    10:00 +38°C° 0 mm 2 mps 715 mmHg 20%
    11:00 +40°C° 0 mm 3 mps 715 mmHg 18%
    12:00 +42°C° 0 mm 4 mps 715 mmHg 17%
    13:00 +42°C° 0 mm 4 mps 714 mmHg 17%
    14:00 +42°C° 0 mm 5 mps 714 mmHg 17%
    15:00 +40°C° 0 mm 5 mps 713 mmHg 19%
    16:00 +40°C° 0 mm 5 mps 713 mmHg 20%
    17:00 +40°C° 0 mm 4 mps 714 mmHg 20%
    18:00 +38°C° 0 mm 4 mps 714 mmHg 20%
    19:00 +37°C° 0 mm 3 mps 714 mmHg 22%
    20:00 +36°C° 0 mm 3 mps 714 mmHg 23%
    21:00 +34°C° 0 mm 3 mps 714 mmHg 27%
    22:00 +34°C° 0 mm 3 mps 714 mmHg 28%
    23:00 +33°C° 0 mm 3 mps 714 mmHg 29%

    Tomorrow, 14 December, Thursday

    Time Temperature Precipitation Wind Pressure Humidity
    00:00 +31°C° 0 mm 3 mps 714 mmHg 30%
    01:00 +31°C° 0 mm 3 mps 714 mmHg 30%
    02:00 +32°C° 0 mm 4 mps 714 mmHg 30%
    03:00 +30°C° 0 mm 4 mps 713 mmHg 31%
    04:00 +30°C° 0 mm 4 mps 714 mmHg 34%
    05:00 +29°C° 0 mm 5 mps 714 mmHg 37%
    06:00 +29°C° 0 mm 5 mps 714 mmHg 39%
    07:00 +30°C° 0 mm 5 mps 715 mmHg 37%
    08:00 +33°C° 0 mm 6 mps 715 mmHg 35%
    09:00 +35°C° 0 mm 6 mps 715 mmHg 33%
    10:00 +36°C° 0 mm 5 mps 715 mmHg 30%
    11:00 +38°C° 0 mm 4 mps 715 mmHg 27%
    12:00 +39°C° 0 mm 3 mps 715 mmHg 24%
    13:00 +39°C° 0 mm 3 mps 714 mmHg 22%
    14:00 +40°C° 0 mm 3 mps 714 mmHg 21%
    15:00 +40°C° 0 mm 3 mps 713 mmHg 19%
    16:00 +41°C° 0 mm 4 mps 713 mmHg 20%
    17:00 +40°C° 0 mm 5 mps 713 mmHg 22%
    18:00 +40°C° 0 mm 6 mps 713 mmHg 23%
    19:00 +38°C° 0 mm 6 mps 714 mmHg 26%
    20:00 +36°C° 0 mm 7 mps 714 mmHg 29%
    21:00 +35°C° 0 mm 7 mps 714 mmHg 32%
    22:00 +34°C° 0 mm 7 mps 714 mmHg 34%
    23:00 +33°C° 0 mm 6 mps 715 mmHg 36%

    Day after tomorrow, 15 December, Friday

    Time Temperature Precipitation Wind Pressure Humidity
    00:00 +33°C° 0 mm 5 mps 715 mmHg 37%
    01:00 +32°C° 0 mm 5 mps 715 mmHg 38%
    02:00 +30°C° 0 mm 5 mps 715 mmHg 39%
    03:00 +30°C° 0 mm 5 mps 714 mmHg 40%
    04:00 +29°C° 0 mm 5 mps 715 mmHg 40%
    05:00 +29°C° 0 mm 6 mps 715 mmHg 39%
    06:00 +28°C° 0 mm 6 mps 715 mmHg 39%
    07:00 +30°C° 0 mm 6 mps 715 mmHg 36%
    08:00 +33°C° 0 mm 6 mps 716 mmHg 33%
    09:00 +34°C° 0 mm 6 mps 716 mmHg 30%
    10:00 +35°C° 0 mm 6 mps 716 mmHg 28%
    11:00 +37°C° 0 mm 5 mps 715 mmHg 26%
    12:00 +38°C° 0 mm 4 mps 715 mmHg 23%
    13:00 +39°C° 0 mm 3 mps 714 mmHg 22%
    14:00 +39°C° 0 mm 2 mps 714 mmHg 20%
    15:00 +40°C° 0 mm 1 mps 713 mmHg 19%
    16:00 +40°C° 0 mm 2 mps 713 mmHg 19%
    17:00 +40°C° 0 mm 2 mps 713 mmHg 19%
    18:00 +39°C° 0 mm 3 mps 713 mmHg 20%
    19:00 +39°C° 0 mm 3 mps 713 mmHg 21%
    20:00 +38°C° 0 mm 3 mps 714 mmHg 22%
    21:00 +37°C° 0 mm 4 mps 714 mmHg 24%
    22:00 +36°C° 0 mm 4 mps 714 mmHg 26%
    23:00 +35°C° 0 mm 4 mps 714 mmHg 27%

    16 December, Saturday

    Time Temperature Precipitation Wind Pressure Humidity
    00:00 +34°C° 0 mm 5 mps 714 mmHg 29%
    01:00 +34°C° 0.1 mm 4 mps 714 mmHg 30%
    02:00 +33°C° 0.1 mm 4 mps 714 mmHg 31%
    03:00 +33°C° 0.1 mm 4 mps 714 mmHg 32%
    04:00 +32°C° 0 mm 4 mps 715 mmHg 32%
    05:00 +32°C° 0 mm 5 mps 715 mmHg 33%
    06:00 +32°C° 0 mm 5 mps 716 mmHg 33%
    07:00 +34°C° 0 mm 6 mps 716 mmHg 30%
    08:00 +35°C° 0 mm 7 mps 717 mmHg 26%
    09:00 +38°C° 0 mm 8 mps 717 mmHg 23%
    10:00 +40°C° 0 mm 8 mps 717 mmHg 21%
    11:00 +41°C° 0 mm 7 mps 716 mmHg 19%
    12:00 +42°C° 0 mm 6 mps 716 mmHg 18%
    13:00 +44°C° 0 mm 6 mps 715 mmHg 17%
    14:00 +43°C° 0 mm 5 mps 714 mmHg 16%
    15:00 +45°C° 0 mm 5 mps 714 mmHg 15%
    16:00 +45°C° 0 mm 5 mps 713 mmHg 16%
    17:00 +43°C° 0 mm 5 mps 713 mmHg 16%
    18:00 +43°C° 0 mm 5 mps 713 mmHg 17%
    19:00 +42°C° 0 mm 5 mps 714 mmHg 19%
    20:00 +41°C° 0 mm 5 mps 714 mmHg 21%
    21:00 +40°C° 0 mm 5 mps 714 mmHg 23%
    22:00 +39°C° 0 mm 5 mps 714 mmHg 26%
    23:00 +38°C° 0 mm 6 mps 714 mmHg 29%

    17 December, Sunday

    Time Temperature Precipitation Wind Pressure Humidity
    00:00 +36°C° 0 mm 6 mps 714 mmHg 32%
    01:00 +36°C° 0 mm 5 mps 714 mmHg 32%
    02:00 +35°C° 0 mm 5 mps 713 mmHg 31%
    03:00 +35°C° 0 mm 4 mps 713 mmHg 31%
    04:00 +35°C° 0 mm 4 mps 713 mmHg 31%
    05:00 +35°C° 0 mm 3 mps 714 mmHg 31%
    06:00 +34°C° 0 mm 3 mps 714 mmHg 31%
    07:00 +36°C° 0 mm 4 mps 714 mmHg 28%
    08:00 +39°C° 0 mm 6 mps 715 mmHg 26%
    09:00 +41°C° 0 mm 7 mps 715 mmHg 23%
    10:00 +43°C° 0 mm 7 mps 715 mmHg 21%
    11:00 +44°C° 0 mm 7 mps 714 mmHg 19%
    12:00 +45°C° 0 mm 7 mps 714 mmHg 17%
    13:00 +45°C° 0 mm 7 mps 713 mmHg 16%
    14:00 +45°C° 0 mm 7 mps 713 mmHg 16%
    15:00 +45°C° 0 mm 7 mps 712 mmHg 15%
    16:00 +45°C° 0 mm 7 mps 712 mmHg 16%
    17:00 +44°C° 0 mm 6 mps 712 mmHg 16%
    18:00 +44°C° 0 mm 6 mps 712 mmHg 17%
    19:00 +42°C° 0 mm 6 mps 712 mmHg 18%
    20:00 +41°C° 0 mm 6 mps 712 mmHg 20%
    21:00 +40°C° 0 mm 5 mps 713 mmHg 21%
    22:00 +39°C° 0.1 mm 6 mps 712 mmHg 24%
    23:00 +38°C° 0.1 mm 6 mps 712 mmHg 26%

    18 December, Monday

    Time Temperature Precipitation Wind Pressure Humidity
    00:00 +36°C° 0.1 mm 6 mps 712 mmHg 28%
    01:00 +36°C° 0.2 mm 5 mps 711 mmHg 31%
    02:00 +35°C° 0.2 mm 5 mps 711 mmHg 34%
    03:00 +34°C° 0.2 mm 5 mps 711 mmHg 36%
    04:00 +34°C° 0 mm 5 mps 711 mmHg 37%
    05:00 +34°C° 0 mm 5 mps 711 mmHg 37%
    06:00 +34°C° 0 mm 5 mps 711 mmHg 37%
    07:00 +35°C° 0.3 mm 6 mps 711 mmHg 35%
    08:00 +36°C° 0.3 mm 7 mps 712 mmHg 33%
    09:00 +38°C° 0.3 mm 8 mps 712 mmHg 31%
    10:00 +39°C° 0.1 mm 9 mps 712 mmHg 30%
    11:00 +40°C° 0.1 mm 9 mps 712 mmHg 28%
    12:00 +42°C° 0.1 mm 10 mps 711 mmHg 27%
    13:00 +43°C° 0 mm 10 mps 711 mmHg 26%
    14:00 +43°C° 0 mm 10 mps 711 mmHg 24%
    15:00 +44°C° 0 mm 10 mps 710 mmHg 23%
    16:00 +43°C° 0 mm 9 mps 710 mmHg 24%
    17:00 +43°C° 0 mm 8 mps 710 mmHg 24%
    18:00 +41°C° 0 mm 8 mps 710 mmHg 24%
    19:00 +41°C° 0 mm 7 mps 710 mmHg 26%
    20:00 +40°C° 0 mm 6 mps 711 mmHg 27%
    21:00 +39°C° 0 mm 5 mps 711 mmHg 28%
    22:00 +37°C° 0.1 mm 5 mps 711 mmHg 29%
    23:00 +36°C° 0.1 mm 6 mps 712 mmHg 29%
    Show more